Flag for Israel Weather past 2 weeks in Rehovot, Israel

Now
81 °F

Scattered clouds.


Feels Like: 85 °F
Forecast: 78 / 90 °F
Wind: 9 mph from South

Location: Ben Gurion International Airport

Current Time: Aug 31, 2015 at 8:43:48 AM

Latest Report: Aug 31, 2015 at 8:20 AM


Visibility: N/A

Pressure: 29.86 "Hg

Humidity: 74%

Dew point: 72 °F

Location of RehovotLocation

Historic Weather in Rehovot — Graph

°F

Rehovot temperature yesterday

Maximum temperature yesterday: 90 °F (at 1:20 PM)
Minimum temperature yesterday: 75 °F (at 5:50 AM)
Average temperature yesterday: 83 °F

Past Weeks' High & Low Weather Summary

 TemperatureHumidityPressure
High100 °F (Aug 16, 2:20 PM)84% (Aug 17, 4:20 AM)29.89 "Hg (Aug 17, 4:20 AM)
Low75 °F (Aug 26, 4:20 AM)40% (Aug 16, 8:50 AM)29.71 "Hg (Aug 16, 2:20 PM)
Average84 °F64%29.80 "Hg
* Reported Aug 16 7:20 AM — Aug 31 7:20 AM, Rehovot, Weather by CustomWeather, © 2015

Note: Actual official high and low records may vary slightly from our data, if they occured in-between our weather recording intervals... More about our weather records

Advertising

Rehovot weather history for previous 24 hours

 ConditionsComfort  
Time TempWeatherWind HumidityBarometerVisibility
7:20 AM
Mon, Aug 31
77 °FScattered clouds.8 mph79%29.83 "HgN/A
6:50 AM75 °FPassing clouds.7 mph83%29.83 "HgN/A
6:20 AM75 °FPassing clouds.5 mph83%29.83 "HgN/A
5:50 AM75 °FPassing clouds.7 mph83%29.83 "HgN/A
5:20 AM75 °FPassing clouds.8 mph83%29.83 "HgN/A
4:50 AM75 °FPassing clouds.8 mph83%29.83 "HgN/A
4:20 AM75 °FPassing clouds.8 mph83%29.83 "HgN/A
3:50 AM77 °FPassing clouds.8 mph79%29.83 "HgN/A
3:20 AM77 °FPassing clouds.7 mph79%29.83 "HgN/A
2:50 AM77 °FPassing clouds.5 mph79%29.83 "HgN/A
2:20 AM77 °FPassing clouds.5 mph79%29.83 "HgN/A
1:50 AM79 °FPassing clouds.5 mph74%29.83 "HgN/A
1:20 AM79 °FPassing clouds.3 mph74%29.83 "HgN/A
12:20 AM79 °FPassing clouds.3 mph74%29.86 "HgN/A
11:50 PM
Sun, Aug 30
81 °FPassing clouds.2 mph70%29.86 "HgN/A
11:20 PM81 °FPassing clouds.5 mph70%29.86 "HgN/A
10:20 PM82 °FPassing clouds.6 mph66%29.86 "HgN/A
9:50 PM82 °FPassing clouds.5 mph70%29.83 "HgN/A
9:20 PM82 °FPassing clouds.6 mph66%29.86 "HgN/A
8:50 PM82 °FPassing clouds.7 mph66%29.83 "HgN/A
8:20 PM82 °FPassing clouds.8 mph66%29.83 "HgN/A
7:50 PM84 °FScattered clouds.10 mph66%29.83 "HgN/A
7:20 PM84 °FScattered clouds.10 mph66%29.83 "HgN/A
6:50 PM84 °FScattered clouds.10 mph66%29.83 "HgN/A
6:20 PM86 °FScattered clouds.13 mph62%29.83 "HgN/A
5:50 PM86 °FScattered clouds.14 mph62%29.83 "HgN/A
5:20 PM86 °FScattered clouds.14 mph62%29.80 "HgN/A
4:50 PM86 °FScattered clouds.14 mph62%29.80 "HgN/A
4:20 PM88 °FPassing clouds.15 mph55%29.80 "HgN/A
3:50 PM88 °FPassing clouds.15 mph52%29.80 "HgN/A
3:20 PM88 °FPassing clouds.15 mph52%29.83 "HgN/A
2:50 PM90 °FPassing clouds.15 mph46%29.83 "HgN/A
2:20 PM90 °FScattered clouds.14 mph52%29.83 "HgN/A
1:50 PM88 °FScattered clouds.13 mph55%29.83 "HgN/A
1:20 PM90 °FScattered clouds.15 mph55%29.83 "HgN/A
12:50 PM88 °FScattered clouds.14 mph59%29.83 "HgN/A
12:20 PM88 °FScattered clouds.14 mph55%29.86 "HgN/A
11:50 AM88 °FScattered clouds.13 mph55%29.86 "HgN/A
11:20 AM88 °FScattered clouds.8 mph52%29.86 "HgN/A
10:50 AM88 °FScattered clouds.8 mph52%29.86 "HgN/A
10:20 AM86 °FScattered clouds.6 mph59%29.86 "HgN/A
9:50 AM84 °FScattered clouds.7 mph62%29.86 "HgN/A
9:20 AM84 °FScattered clouds.7 mph66%29.86 "HgN/A
8:50 AM81 °FScattered clouds.8 mph74%29.86 "HgN/A
8:20 AM81 °FScattered clouds.8 mph74%29.86 "HgN/A
Weather by CustomWeather, © 2015

See weather overviewHow to use our weather pages